Location: Newark
(27.9675°N, 86.8869°E)
Time: 20:36:23
(UTC+00:00)

Courier 1B Rocket - Pass Details

Date: 16 October 2019
Orbit: 920 x 1202 km, 28.2° (Epoch: 10 November)

Event Time Altitude Azimuth Distance (km) Brightness Sun altitude
Rises 01:52:11 0° 275° (W) 3,622 7.4 20.2°
Reaches altitude 10° 01:54:45 10° 275° (W) 2,706 6.8 20.7°
Maximum altitude 02:01:20 88° 191° (S) 1,021 5.6 22.1°
Drops below altitude 10° 02:08:27 10° 98° (E) 2,908 9.1 23.5°
Sets 02:11:17 0° 98° (E) 3,907 9.4 24.1°
